Location: Dunedin
(45.8670°S, 170.5000°E)
Time: 09:22:33
(UTC+13:00)

ISS - Pass Details

Date: 30 January 2019
Orbit: 403 x 411 km, 51.6° (Epoch: 18 February)

Event Time Altitude Azimuth Distance (km) Brightness Sun altitude
Exits shadow 05:26:07 10° 345° (NNW) 1,501 -1.4 -9.9°
Reaches altitude 10° 05:26:10 10° 345° (NNW) 1,486 -1.5 -9.9°
Maximum altitude 05:28:56 24° 41° (NE) 897 -2.0 -9.5°
Drops below altitude 10° 05:31:44 10° 98° (E) 1,496 0.1 -9.1°
Sets 05:34:04 0° 111° (ESE) 2,363 1.8 -8.8°
